Location: Chicago
(41.8500°N, 87.6500°W)
Time: 05:41:13
(UTC-06:00)

Tiangong 2 - Visible Passes

Search period start: 20 February 2018 00:00
Search period end: 02 March 2018 00:00
Orbit: 384 x 388 km, 42.8° (Epoch: 20 February)

Date Brightness Start Highest point End Pass type
(mag) Time Alt. Az. Time Alt. Az. Time Alt. Az.
20 Feb 2.0 18:57:48 10° W 19:00:48 41° SSW 19:01:40 32° SSE visible
21 Feb 1.4 17:58:45 10° W 18:01:55 63° SSW 18:05:03 10° ESE visible
21 Feb 3.7 19:36:19 10° WSW 19:38:04 15° SW 19:38:04 15° SW visible
22 Feb 3.0 18:36:49 10° W 18:39:30 25° SSW 18:42:11 10° SSE visible
24 Feb 3.9 18:16:09 10° WSW 18:18:05 15° SSW 18:20:00 10° S visible
